Regional Weather Roundup
Issued by NWS

Home | Current Version | Previous Version | Text Only | Print | Product List | Glossary Off
Versions: 1 2 3 4 5 6 7 8 9 10 11 12 13 14 15 16 17 18 19 20 21 22 23 24 25 26 27 28 29 30 31 32 33 34 35 36 37 38 39 40 41 42 43 44 45 46 47 48 49 50

000
ASUS43 KOAX 041802
RWRNE

WEATHER ROUNDUP FOR NEBRASKA
NATIONAL WEATHER SERVICE OMAHA NE
1200 PM CST SUN DEC 04 2016

NOTES: SATELLITE DATA IS BEING USED TO AUGMENT CLOUD COVER ABOVE
       12000 FEET.
       "FAIR" INDICATES FEW OR NO CLOUDS BELOW 12,000 FEET WITH NO
       SIGNIFICANT WEATHER AND/OR OBSTRUCTIONS TO VISIBILITY.

  * THESE STATIONS DO NOT REPORT WEATHER SUCH AS RAIN...SNOW OR FOG.

NEZ001>004-019>022-054>056-041900-
NEBRASKA PANHANDLE

CITY           SKY/WX    TMP DP  RH WIND       PRES   REMARKS
SCOTTSBLUFF    SUNNY     46  15  28 W16G24    29.91F
6HR MIN TEMP:  14; 6HR MAX TEMP:  46;

ALLIANCE       SUNNY     43  17  35 W15G22    29.90F
6HR MIN TEMP:  14; 6HR MAX TEMP:  43;

CHADRON        SUNNY     42  14  32 VRB7      29.89F
6HR MIN TEMP:  19; 6HR MAX TEMP:  42;

SIDNEY         SUNNY     45  11  25 W10       29.95F
6HR MIN TEMP:  20; 6HR MAX TEMP:  45;

$$

NEZ057>060-069>072-079>082-041900-
SOUTHWEST NEBRASKA

CITY           SKY/WX    TMP DP  RH WIND       PRES   REMARKS
NORTH PLATTE   SUNNY     45  20  36 W9        29.96F
6HR MIN TEMP:  18; 6HR MAX TEMP:  45;

IMPERIAL       SUNNY     45  17  32 W16       29.98F
6HR MIN TEMP:  23; 6HR MAX TEMP:  46;

LEXINGTON      SUNNY     46  23  41 W8        29.97F
MCCOOK         SUNNY     45  22  40 W9        30.00F
6HR MIN TEMP:  21; 6HR MAX TEMP:  45;

$$

NEZ005>010-023>029-035>040-094-041900-
NORTH CENTRAL NEBRASKA

CITY           SKY/WX    TMP DP  RH WIND       PRES   REMARKS
VALENTINE      SUNNY     45  19  35 NW14      29.89F
6HR MIN TEMP:  20; 6HR MAX TEMP:  45;

AINSWORTH      SUNNY     45  23  42 W10       29.90F
BROKEN BOW     SUNNY     47  24  40 W12       29.93F
6HR MIN TEMP:  31; 6HR MAX TEMP:  47;

ORD            SUNNY     46  22  38 NW9       29.93F
6HR MIN TEMP:  20; 6HR MAX TEMP:  46;

$$

NEZ041-046>049-061>064-073>077-083>087-041900-
SOUTH CENTRAL NEBRASKA

CITY           SKY/WX    TMP DP  RH WIND       PRES   REMARKS
GRAND ISLAND   SUNNY     42  32  67 W9        29.97F
6HR MIN TEMP:  28; 6HR MAX TEMP:  43;

AURORA         SUNNY     41  34  74 W6        29.96F
HASTINGS       SUNNY     39  32  76 W10       29.98F WCI  32
6HR MIN TEMP:  28; 6HR MAX TEMP:  39;

HEBRON         CLOUDY    32  31  96 W7        30.00F FOG     WCI  26
HOLDREGE       SUNNY     42  31  65 W7        29.98F
KEARNEY *      SUNNY     43  27  52 SW7       29.97F
YORK           SUNNY     37  32  81 W8        29.97F WCI  31
$$

NEZ011>018-030>034-042>045-041900-
NORTHEAST NEBRASKA

CITY           SKY/WX    TMP DP  RH WIND       PRES   REMARKS
NORFOLK        SUNNY     45  31  58 W9        29.90F
6HR MIN TEMP:  27; 6HR MAX TEMP:  45;

ALBION         SUNNY     45  31  58 NW7       29.92F
BLAIR          MOSUNNY   34  32  91 SW9       29.94F WCI  27
FREMONT        SUNNY     35  33  90 SW6       29.95F WCI  30
TEKAMAH        SUNNY     34  30  85 SW7       29.94F WCI  28
6HR MIN TEMP:  30; 6HR MAX TEMP:  35;

WAYNE          SUNNY     46  33  62 W6        29.90F
$$

NEZ050>053-065>068-078-088>093-041900-
SOUTHEAST NEBRASKA

CITY           SKY/WX    TMP DP  RH WIND       PRES   REMARKS
LINCOLN        CLOUDY    33  31  92 SW9       29.99F WCI  25
6HR MIN TEMP:  32; 6HR MAX TEMP:  34;

OMAHA EPPLEY   MOSUNNY   36  31  82 SW7       29.96F WCI  30
6HR MIN TEMP:  34; 6HR MAX TEMP:  37;

BEATRICE       CLOUDY    35  33  92 W8        29.99F WCI  28
FALLS CITY     CLOUDY    36  34  92 W12       29.99F WCI  28
6HR MIN TEMP:  34; 6HR MAX TEMP:  37; 6HR PCP: TRACE;

NEBRASKA CITY  CLOUDY    37  34  89 SW15      29.98F WCI  28
$$

NEZ044-045-051>053-067-041900-
OMAHA AREA

CITY           SKY/WX    TMP DP  RH WIND       PRES   REMARKS
OMAHA EPPLEY   MOSUNNY   36  31  82 SW7       29.96F WCI  30
6HR MIN TEMP:  34; 6HR MAX TEMP:  37;

BLAIR          MOSUNNY   34  32  91 SW9       29.94F WCI  27
FREMONT        SUNNY     35  33  90 SW6       29.95F WCI  30
OFFUTT AFB     CLOUDY    36  36  99 W8        29.96F WCI  30
WAHOO          FAIR      35  31  87 SW10      29.96F WCI  27
$$




USA.gov is the U.S. government's official web portal to all federal, state and local government web resources and services.